sat.trackr.live / text

‹ back to catalog

STARLINK-36065

NORAD 66898 · 2025-283W

PAYLOAD ACTIVE UNKNOWN

§ Identity

Operator
Country
US
Launch date
2025-12-04
Launch site
AFWTR
Launch vehicle
Mass (kg)
RCS (m²)

Purposes: comms

External: N2YO · Heavens-Above · Gunter

§ Orbital elements

Epoch: 2026-09-20T13:12:07.734528Z

Period
93.85 min
Inclination
53.1582°
Eccentricity
0.0001444
Mean motion
15.34392127 rev/d
Perigee alt
461.7 km
Apogee alt
463.7 km
Semi-major
6,840.9 km
B*
4.8452e-4
RAAN
195.1251°
Arg perigee
86.5591°
Mean anomaly
273.5577°
Rev number
4,573

§ Raw data

STARLINK-360651 66898U 25283W   26263.55008952  .00016025  00000+0  48452-3 0  99992 66898  53.1582 195.1251 0001444  86.5591 273.5577 15.34392127 45736

JSON: /api/v1/satellites/66898 · /tle

For live sub-satellite position, see the globe view (requires WebGL).

§ Visibility from observer

Set your observer location to see the next 7 days of passes ≥ 10°. The values pass through the URL so the page stays shareable.

No JS? Fill the form by hand. The geolocation button needs JavaScript.